Location: Newark
(25.6108°S, 54.5803°W)
Time: 17:26:56
(UTC+00:00)

Courier 1B Rocket - Pass Details

Date: 03 November 2020
Orbit: 920 x 1202 km, 28.2° (Epoch: 22 November)

Event Time Altitude Azimuth Distance (km) Brightness Sun altitude
Rises 12:52:56 0° 258° (WSW) 3,845 7.8 53.8°
Reaches altitude 10° 12:55:49 10° 263° (W) 2,843 7.2 54.4°
Maximum altitude 13:02:25 50° 336° (NNW) 1,237 6.2 55.9°
Drops below altitude 10° 13:08:36 10° 50° (NE) 2,660 7.9 57.2°
Sets 13:11:14 0° 55° (NE) 3,578 8.4 57.8°
